SWA652 KBNA-KIND

Flight info

Callsign SWA652
Flight time 0h 54m
Altitude 33000
Route KRSTA4 OLSIE HAGAL GIIBS4
Aircraft B738/M-SADE2E3GIJ4RWZ/LB1D1

Departure

Time 2026-05-04 02:09
Airport Nashville International Airport (KBNA)

Arrival

Time 2026-05-04 03:03
Airport Indianapolis International Airport (KIND)
Time Latitude Longitude Altitude Speed Heading
2026-05-04 01:58 36.12682 -86.66857 607 ft 0 kts 224°
2026-05-04 02:01 36.12681 -86.66857 607 ft 0 kts 224°
2026-05-04 02:01 36.12666 -86.66876 607 ft 5 kts 222°
2026-05-04 02:01 36.12624 -86.66923 607 ft 10 kts 232°
2026-05-04 02:02 36.12630 -86.67014 607 ft 12 kts 304°
2026-05-04 02:02 36.12703 -86.67102 607 ft 17 kts 322°
2026-05-04 02:03 36.12807 -86.67325 607 ft 0 kts 223°
2026-05-04 02:03 36.12791 -86.67342 607 ft 5 kts 224°
2026-05-04 02:04 36.12752 -86.67390 607 ft 10 kts 224°
2026-05-04 02:04 36.12681 -86.67453 607 ft 13 kts 211°
2026-05-04 02:04 36.12600 -86.67511 607 ft 15 kts 215°
2026-05-04 02:04 36.12520 -86.67600 607 ft 14 kts 223°
2026-05-04 02:05 36.12437 -86.67674 607 ft 16 kts 201°
2026-05-04 02:05 36.12349 -86.67711 607 ft 9 kts 197°
2026-05-04 02:05 36.12344 -86.67712 607 ft 0 kts 197°
2026-05-04 02:05 36.12331 -86.67719 607 ft 4 kts 205°
2026-05-04 02:06 36.12313 -86.67736 607 ft 4 kts 230°
2026-05-04 02:06 36.12307 -86.67792 607 ft 9 kts 277°
2026-05-04 02:06 36.12325 -86.67872 607 ft 0 kts 288°
2026-05-04 02:07 36.12325 -86.67873 607 ft 0 kts 288°
2026-05-04 02:07 36.12326 -86.67875 607 ft 1 kts 288°
2026-05-04 02:07 36.12335 -86.67909 607 ft 6 kts 287°
2026-05-04 02:08 36.12339 -86.67929 607 ft 3 kts 283°
2026-05-04 02:08 36.12320 -86.67996 607 ft 12 kts 214°
2026-05-04 02:08 36.12058 -86.68108 607 ft 71 kts 198°
2026-05-04 02:08 36.11404 -86.68367 607 ft 124 kts 198°
2026-05-04 02:09 36.10446 -86.68762 652 ft 161 kts 200°
2026-05-04 02:09 36.09384 -86.69308 1253 ft 165 kts 205°
2026-05-04 02:09 36.08511 -86.70008 2107 ft 148 kts 233°
2026-05-04 02:09 36.08165 -86.71234 2473 ft 158 kts 258°
2026-05-04 02:10 36.07892 -86.72549 2956 ft 160 kts 250°
2026-05-04 02:10 36.07480 -86.73857 3444 ft 164 kts 249°
2026-05-04 02:10 36.07078 -86.75153 3985 ft 164 kts 250°
2026-05-04 02:10 36.06692 -86.76492 4498 ft 166 kts 254°
2026-05-04 02:11 36.06595 -86.77937 4795 ft 181 kts 281°
2026-05-04 02:11 36.06993 -86.79477 5161 ft 193 kts 288°
2026-05-04 02:11 36.07405 -86.81126 5483 ft 208 kts 284°
2026-05-04 02:11 36.07774 -86.82902 5815 ft 224 kts 284°
2026-05-04 02:12 36.08298 -86.84789 6222 ft 238 kts 297°
2026-05-04 02:12 36.09428 -86.86334 6637 ft 255 kts 326°
2026-05-04 02:12 36.11151 -86.87083 7172 ft 269 kts 351°
2026-05-04 02:12 36.13050 -86.86972 7889 ft 275 kts
2026-05-04 02:13 36.14900 -86.86463 8639 ft 276 kts 10°
2026-05-04 02:13 36.16789 -86.85873 9405 ft 277 kts 10°
2026-05-04 02:13 36.18643 -86.85297 10139 ft 278 kts
2026-05-04 02:13 36.20564 -86.84722 10637 ft 290 kts
2026-05-04 02:14 36.22592 -86.84132 11080 ft 303 kts
2026-05-04 02:14 36.24695 -86.83527 11447 ft 319 kts
2026-05-04 02:14 36.26903 -86.82890 11861 ft 333 kts
2026-05-04 02:14 36.29208 -86.82223 12378 ft 344 kts
2026-05-04 02:15 36.31580 -86.81506 13058 ft 350 kts 12°
2026-05-04 02:15 36.33882 -86.80402 13800 ft 359 kts 24°
2026-05-04 02:15 36.35885 -86.78510 14527 ft 371 kts 40°
2026-05-04 02:15 36.37682 -86.76141 14949 ft 380 kts 44°
2026-05-04 02:16 36.39413 -86.73672 14981 ft 379 kts 45°
2026-05-04 02:16 36.41164 -86.71126 15379 ft 388 kts 45°
2026-05-04 02:16 36.42912 -86.68600 16262 ft 387 kts 45°
2026-05-04 02:16 36.44667 -86.66093 17024 ft 390 kts 44°
2026-05-04 02:17 36.46476 -86.63542 17641 ft 396 kts 44°
2026-05-04 02:17 36.48301 -86.60987 18288 ft 400 kts 44°
2026-05-04 02:17 36.50169 -86.58384 18967 ft 403 kts 43°
2026-05-04 02:17 36.52053 -86.55761 19569 ft 408 kts 43°
2026-05-04 02:18 36.53937 -86.53138 20252 ft 410 kts 43°
2026-05-04 02:18 36.55894 -86.50539 20821 ft 413 kts 40°
2026-05-04 02:18 36.58063 -86.48147 21432 ft 411 kts 32°
2026-05-04 02:18 36.60437 -86.46248 21996 ft 410 kts 23°
2026-05-04 02:19 36.63005 -86.44666 22587 ft 410 kts 19°
2026-05-04 02:19 36.65628 -86.43256 23176 ft 412 kts 17°
2026-05-04 02:19 36.68308 -86.41904 23710 ft 415 kts 16°
2026-05-04 02:19 36.71038 -86.40558 24243 ft 418 kts 16°
2026-05-04 02:20 36.73726 -86.39208 24783 ft 422 kts 17°
2026-05-04 02:20 36.76411 -86.37676 25393 ft 425 kts 19°
2026-05-04 02:20 36.79089 -86.35998 25801 ft 431 kts 21°
2026-05-04 02:20 36.81888 -86.34166 26379 ft 433 kts 22°
2026-05-04 02:21 36.84562 -86.32390 26748 ft 439 kts 22°
2026-05-04 02:21 36.87269 -86.30589 27283 ft 440 kts 21°
2026-05-04 02:21 36.89980 -86.28793 27649 ft 444 kts 21°
2026-05-04 02:21 36.92707 -86.26994 28174 ft 444 kts 21°
2026-05-04 02:22 36.95472 -86.25178 28512 ft 449 kts 21°
2026-05-04 02:22 36.98227 -86.23374 29133 ft 446 kts 20°
2026-05-04 02:22 37.00973 -86.21571 29910 ft 440 kts 20°
2026-05-04 02:22 37.03691 -86.19786 30521 ft 437 kts 20°
2026-05-04 02:23 37.06381 -86.18025 31023 ft 436 kts 19°
2026-05-04 02:23 37.09068 -86.16270 31508 ft 435 kts 19°
2026-05-04 02:23 37.11810 -86.14481 31933 ft 436 kts 19°
2026-05-04 02:23 37.14469 -86.12744 32454 ft 434 kts 19°
2026-05-04 02:24 37.17168 -86.10975 32975 ft 431 kts 19°
2026-05-04 02:24 37.19818 -86.09243 33041 ft 434 kts 19°
2026-05-04 02:24 37.25185 -86.05905 33040 ft 426 kts 14°
2026-05-04 02:25 37.29757 -86.03553 33036 ft 424 kts 12°
2026-05-04 02:25 37.36151 -86.00465 33034 ft 422 kts 12°
2026-05-04 02:26 37.41648 -85.97792 33039 ft 423 kts 12°
2026-05-04 02:26 37.47161 -85.95073 33033 ft 423 kts 12°
2026-05-04 02:27 37.52645 -85.92338 33031 ft 422 kts 12°
2026-05-04 02:27 37.58140 -85.89587 33026 ft 425 kts 13°
2026-05-04 02:28 37.63633 -85.86829 33026 ft 423 kts 12°
2026-05-04 02:28 37.69121 -85.84065 33015 ft 422 kts 13°
2026-05-04 02:29 37.74595 -85.81304 33023 ft 424 kts 12°
2026-05-04 02:29 37.80046 -85.78556 33009 ft 422 kts 12°
2026-05-04 02:30 37.85563 -85.75775 33015 ft 425 kts 13°
2026-05-04 02:30 37.91017 -85.73013 33015 ft 424 kts 12°
2026-05-04 02:31 37.96511 -85.70227 33005 ft 422 kts 12°
2026-05-04 02:31 38.01959 -85.67461 33008 ft 424 kts 12°
2026-05-04 02:32 38.07475 -85.64656 33011 ft 423 kts 12°
2026-05-04 02:32 38.12944 -85.61859 32660 ft 416 kts 12°
2026-05-04 02:33 38.15605 -85.60603 31871 ft 416 kts
2026-05-04 02:33 38.18423 -85.59667 30506 ft 425 kts
2026-05-04 02:33 38.21368 -85.59164 29232 ft 428 kts 355°
2026-05-04 02:33 38.24323 -85.59204 28283 ft 424 kts 348°
2026-05-04 02:34 38.27263 -85.59594 27438 ft 421 kts 345°
2026-05-04 02:34 38.30118 -85.60119 27007 ft 411 kts 344°
2026-05-04 02:34 38.32936 -85.60671 26996 ft 407 kts 344°
2026-05-04 02:34 38.35784 -85.61224 27000 ft 415 kts 344°
2026-05-04 02:35 38.38634 -85.61749 26994 ft 416 kts 345°
2026-05-04 02:35 38.41516 -85.62246 26995 ft 415 kts 345°
2026-05-04 02:35 38.44370 -85.62716 26996 ft 416 kts 345°
2026-05-04 02:35 38.47276 -85.63180 26995 ft 415 kts 345°
2026-05-04 02:36 38.50144 -85.63631 26994 ft 418 kts 345°
2026-05-04 02:36 38.53054 -85.64082 26989 ft 418 kts 346°
2026-05-04 02:36 38.55920 -85.64522 26985 ft 417 kts 345°
2026-05-04 02:36 38.58826 -85.64964 26973 ft 413 kts 346°
2026-05-04 02:37 38.61624 -85.65372 26775 ft 403 kts 346°
2026-05-04 02:37 38.64422 -85.65775 26109 ft 401 kts 346°
2026-05-04 02:37 38.67229 -85.66188 24782 ft 414 kts 346°
2026-05-04 02:37 38.70061 -85.66609 24115 ft 409 kts 346°
2026-05-04 02:38 38.72867 -85.67019 23429 ft 406 kts 346°
2026-05-04 02:38 38.75671 -85.67429 22812 ft 401 kts 346°
2026-05-04 02:38 38.78421 -85.67831 22157 ft 398 kts 346°
2026-05-04 02:38 38.81170 -85.68235 21524 ft 394 kts 346°
2026-05-04 02:39 38.83879 -85.68635 20855 ft 391 kts 346°
2026-05-04 02:39 38.86571 -85.69032 20225 ft 388 kts 346°
2026-05-04 02:39 38.89242 -85.69428 19608 ft 384 kts 346°
2026-05-04 02:39 38.91862 -85.69815 18993 ft 380 kts 346°
2026-05-04 02:40 38.94480 -85.70204 18373 ft 377 kts 347°
2026-05-04 02:40 38.97077 -85.70593 17774 ft 373 kts 347°
2026-05-04 02:40 38.99654 -85.70982 17138 ft 370 kts 347°
2026-05-04 02:40 39.02177 -85.71364 16449 ft 369 kts 347°
2026-05-04 02:41 39.04731 -85.71785 15800 ft 366 kts 346°
2026-05-04 02:41 39.07245 -85.72227 15195 ft 362 kts 346°
2026-05-04 02:41 39.09750 -85.72681 14555 ft 360 kts 347°
2026-05-04 02:41 39.12202 -85.73125 14071 ft 354 kts 347°
2026-05-04 02:42 39.14602 -85.73721 14008 ft 349 kts 341°
2026-05-04 02:42 39.16957 -85.74646 14003 ft 353 kts 336°
2026-05-04 02:42 39.19244 -85.75798 14003 ft 352 kts 333°
2026-05-04 02:42 39.21472 -85.77055 13997 ft 348 kts 332°
2026-05-04 02:43 39.23635 -85.78326 14006 ft 329 kts 332°
2026-05-04 02:43 39.25644 -85.79517 14012 ft 310 kts 331°
2026-05-04 02:43 39.27565 -85.80650 14018 ft 296 kts 331°
2026-05-04 02:43 39.29458 -85.81760 14017 ft 298 kts 332°
2026-05-04 02:44 39.31361 -85.82880 14000 ft 299 kts 330°
2026-05-04 02:44 39.33150 -85.84120 13740 ft 292 kts 325°
2026-05-04 02:44 39.34831 -85.85609 13204 ft 292 kts 320°
2026-05-04 02:44 39.36414 -85.87217 12775 ft 289 kts 318°
2026-05-04 02:45 39.37934 -85.88837 12671 ft 275 kts 318°
2026-05-04 02:45 39.39396 -85.90398 12516 ft 264 kts 318°
2026-05-04 02:45 39.40803 -85.91890 12267 ft 258 kts 318°
2026-05-04 02:45 39.42195 -85.93354 11842 ft 259 kts 318°
2026-05-04 02:46 39.43596 -85.94820 11470 ft 257 kts 318°
2026-05-04 02:46 39.44983 -85.96272 11073 ft 257 kts 317°
2026-05-04 02:46 39.46356 -85.97704 10692 ft 256 kts 318°
2026-05-04 02:46 39.47762 -85.99112 10331 ft 254 kts 319°
2026-05-04 02:47 39.49183 -86.00496 10018 ft 251 kts 319°
2026-05-04 02:47 39.50567 -86.01840 9990 ft 247 kts 319°
2026-05-04 02:47 39.51926 -86.03166 9763 ft 244 kts 319°
2026-05-04 02:47 39.53289 -86.04505 9363 ft 244 kts 319°
2026-05-04 02:48 39.54646 -86.05840 8965 ft 245 kts 319°
2026-05-04 02:48 39.55996 -86.07169 8604 ft 244 kts 319°
2026-05-04 02:48 39.57353 -86.08502 8268 ft 242 kts 318°
2026-05-04 02:48 39.58673 -86.09802 7925 ft 240 kts 318°
2026-05-04 02:49 39.59976 -86.11185 7543 ft 238 kts 313°
2026-05-04 02:49 39.61149 -86.12669 7174 ft 237 kts 310°
2026-05-04 02:49 39.62298 -86.14207 6834 ft 235 kts 310°
2026-05-04 02:49 39.63440 -86.15731 6489 ft 234 kts 310°
2026-05-04 02:50 39.64561 -86.17185 6352 ft 225 kts 312°
2026-05-04 02:50 39.65830 -86.18339 6231 ft 223 kts 332°
2026-05-04 02:50 39.67388 -86.18547 6074 ft 234 kts
2026-05-04 02:50 39.68911 -86.17672 5794 ft 248 kts 31°
2026-05-04 02:51 39.70195 -86.16140 5551 ft 248 kts 40°
2026-05-04 02:51 39.71404 -86.14550 5159 ft 251 kts 40°
2026-05-04 02:51 39.72660 -86.12936 4983 ft 249 kts 40°
2026-05-04 02:51 39.73901 -86.11337 4994 ft 253 kts 40°
2026-05-04 02:52 39.75146 -86.09724 4988 ft 253 kts 40°
2026-05-04 02:52 39.76399 -86.08089 4983 ft 254 kts 41°
2026-05-04 02:52 39.77638 -86.06467 4984 ft 253 kts 41°
2026-05-04 02:52 39.78889 -86.04835 4984 ft 254 kts 41°
2026-05-04 02:53 39.80149 -86.03195 4981 ft 254 kts 40°
2026-05-04 02:53 39.81379 -86.01599 4944 ft 250 kts 40°
2026-05-04 02:53 39.82618 -85.99992 4701 ft 247 kts 41°
2026-05-04 02:53 39.83796 -85.98457 4587 ft 237 kts 41°
2026-05-04 02:54 39.84991 -85.96985 4377 ft 229 kts 30°
2026-05-04 02:54 39.86384 -85.96255 4179 ft 208 kts 356°
2026-05-04 02:54 39.87751 -85.96601 3737 ft 196 kts 321°
2026-05-04 02:54 39.88882 -85.97585 3248 ft 200 kts 314°
2026-05-04 02:55 39.91092 -85.99652 2963 ft 181 kts 315°
2026-05-04 02:55 39.91969 -86.00729 2974 ft 165 kts 288°
2026-05-04 02:55 39.92128 -86.02097 2977 ft 149 kts 248°
2026-05-04 02:56 39.91552 -86.03166 2986 ft 145 kts 224°
2026-05-04 02:56 39.90826 -86.04067 2978 ft 144 kts 229°
2026-05-04 02:56 39.90161 -86.05074 2978 ft 144 kts 231°
2026-05-04 02:56 39.89539 -86.06097 2982 ft 145 kts 232°
2026-05-04 02:57 39.88926 -86.07153 2979 ft 144 kts 233°
2026-05-04 02:57 39.88345 -86.08191 2979 ft 139 kts 235°
2026-05-04 02:57 39.87805 -86.09203 2976 ft 134 kts 236°
2026-05-04 02:57 39.87275 -86.10232 2979 ft 136 kts 237°
2026-05-04 02:58 39.86756 -86.11254 2979 ft 135 kts 233°
2026-05-04 02:58 39.86151 -86.12205 2977 ft 135 kts 229°
2026-05-04 02:58 39.85504 -86.13097 2978 ft 135 kts 227°
2026-05-04 02:58 39.84847 -86.13966 2982 ft 136 kts 227°
2026-05-04 02:59 39.84176 -86.14835 2978 ft 135 kts 226°
2026-05-04 02:59 39.83496 -86.15713 2979 ft 135 kts 226°
2026-05-04 02:59 39.82833 -86.16562 2980 ft 135 kts 227°
2026-05-04 02:59 39.82161 -86.17424 2977 ft 134 kts 226°
2026-05-04 03:00 39.81504 -86.18260 2973 ft 126 kts 226°
2026-05-04 03:00 39.80888 -86.19047 2998 ft 124 kts 226°
2026-05-04 03:00 39.80266 -86.19838 2917 ft 130 kts 226°
2026-05-04 03:00 39.79629 -86.20648 2633 ft 127 kts 225°
2026-05-04 03:01 39.78987 -86.21467 2515 ft 130 kts 225°
2026-05-04 03:01 39.78325 -86.22308 2306 ft 133 kts 225°
2026-05-04 03:01 39.77665 -86.23151 2139 ft 134 kts 224°
2026-05-04 03:01 39.76982 -86.24021 1948 ft 138 kts 224°
2026-05-04 03:02 39.76290 -86.24902 1761 ft 140 kts 223°
2026-05-04 03:02 39.75586 -86.25796 1571 ft 143 kts 223°
2026-05-04 03:02 39.74865 -86.26713 1378 ft 146 kts 223°
2026-05-04 03:02 39.74125 -86.27654 1173 ft 150 kts 223°
2026-05-04 03:03 39.73371 -86.28617 1002 ft 152 kts 223°
2026-05-04 03:03 39.72612 -86.29565 824 ft 146 kts 224°
2026-05-04 03:03 39.71943 -86.30418 761 ft 112 kts 225°
2026-05-04 03:03 39.71549 -86.30919 755 ft 40 kts 223°
2026-05-04 03:04 39.71421 -86.31008 753 ft 20 kts 188°
2026-05-04 03:04 39.71353 -86.31000 753 ft 6 kts 167°
2026-05-04 03:04 39.71307 -86.30949 753 ft 13 kts 79°
2026-05-04 03:04 39.71391 -86.30825 754 ft 17 kts 44°
2026-05-04 03:05 39.71469 -86.30726 756 ft 13 kts 45°
2026-05-04 03:05 39.71540 -86.30635 757 ft 14 kts 44°
2026-05-04 03:05 39.71615 -86.30539 759 ft 15 kts 44°
2026-05-04 03:05 39.71695 -86.30437 760 ft 16 kts 45°
2026-05-04 03:06 39.71774 -86.30338 763 ft 14 kts 45°
2026-05-04 03:06 39.71844 -86.30248 765 ft 14 kts 45°
2026-05-04 03:06 39.71915 -86.30154 766 ft 15 kts 44°
2026-05-04 03:06 39.71940 -86.30061 768 ft 10 kts 119°
2026-05-04 03:07 39.71888 -86.29990 770 ft 11 kts 136°
2026-05-04 03:07 39.71867 -86.29906 771 ft 10 kts 62°
2026-05-04 03:07 39.71919 -86.29838 773 ft 10 kts 39°
2026-05-04 03:07 39.71925 -86.29830 773 ft 0 kts 40°
2026-05-04 03:08 39.71926 -86.29830 773 ft 0 kts 40°
2026-05-04 03:08 39.71937 -86.29803 773 ft 3 kts 80°
2026-05-04 03:08 39.71934 -86.29775 774 ft 2 kts 121°
2026-05-04 03:08 39.71921 -86.29761 774 ft 2 kts 147°
2026-05-04 03:09 39.71907 -86.29749 774 ft 3 kts 150°
2026-05-04 03:09 39.71878 -86.29728 775 ft 6 kts 148°
2026-05-04 03:09 39.71859 -86.29713 775 ft 1 kts 146°
2026-05-04 03:09 39.71853 -86.29707 775 ft 1 kts 145°
2026-05-04 03:10 39.71849 -86.29703 775 ft 0 kts 146°
2026-05-04 03:10 39.71845 -86.29700 775 ft 0 kts 147°